Weather History for Pula, Croatia

Change the Weather History Date:

Monday, April 1, 2013

  Actual Average Record
Temperature  
Mean Temperature 46 °F -  
Max Temperature 52 °F - - ()
Min Temperature 41 °F - - ()
Degree Days  
Heating Degree Days 18    
Moisture  
Dew Point 40 °F    
Average Humidity 72    
Maximum Humidity 87    
Minimum Humidity 55    
Precipitation  
Precipitation 0.00 in - - ()
Sea Level Pressure  
Sea Level Pressure 29.68 in    
Wind  
Wind Speed 12 mph ()    
Max Wind Speed 18 mph    
Max Gust Speed 36 mph    
Visibility 8.0 miles    
Events Rain    
T = Trace of Precipitation, MM = Missing Value Source: Averaged Metar Reports

Daily Weather History Graph

Daily Weather History Graph

Search for Another Location

Airport:

Trip Planner

Search our weather history database for the weather conditions in past years. The results will help you decide how hot, cold, wet, or windy it might be!

Date:

Astronomy

Apr. 01, 2013 Rise Set
Actual Time 6:45 AM CEST 7:31 PM CEST
Civil Twilight 6:15 AM CEST 8:01 PM CEST
Nautical Twilight 5:40 AM CEST 8:36 PM CEST
Astronomical Twilight 5:03 AM CEST 9:13 PM CEST
Moon 12:33 AM CEST (4/1) 10:02 AM CEST (4/1)
Length of Visible Light 13h 46m
Length of Day
12h 46m
Waning Gibbous, 70% of the Moon is Illuminated
Apr 1
Waning Gibbous
Apr 3
Last Quarter
Apr 10
New
Apr 18
First Quarter
Apr 25
Full

Hourly Weather History & Observations

Time (CEST) Temp. Windchill Dew Point Humidity Pressure Visibility Wind Dir Wind Speed Gust Speed Precip Events Conditions
12:00 AM 46.4 °F 40.7 °F 41.0 °F 81% 29.59 in 6.2 mi East 12.7 mph - N/A   Scattered Clouds
12:30 AM 46.4 °F 39.8 °F 39.2 °F 76% 29.59 in 6.2 mi East 16.1 mph - N/A   Scattered Clouds
1:00 AM 44.6 °F 36.9 °F 37.4 °F 76% 29.59 in 6.2 mi East 18.4 mph - N/A   Mostly Cloudy
1:30 AM 44.6 °F 37.8 °F 37.4 °F 76% 29.62 in 6.2 mi East 15.0 mph - N/A   Mostly Cloudy
2:00 AM 45 °F - 37 °F 65% 29.64 in 19 mi East 15.7 mph - -   Mostly Cloudy
2:00 AM 44.6 °F 37.8 °F 37.4 °F 76% 29.62 in 6.2 mi East 15.0 mph - N/A   Mostly Cloudy
2:30 AM 44.6 °F 37.4 °F 37.4 °F 76% 29.62 in 6.2 mi East 16.1 mph - N/A   Mostly Cloudy
3:00 AM 44.6 °F 37.8 °F 37.4 °F 76% 29.62 in 6.2 mi East 15.0 mph - N/A   Mostly Cloudy
3:30 AM 44.6 °F 37.8 °F 37.4 °F 76% 29.62 in 6.2 mi East 15.0 mph - N/A   Mostly Cloudy
4:00 AM 42.8 °F 35.4 °F 37.4 °F 81% 29.62 in 6.2 mi East 15.0 mph - N/A Rain Light Rain
4:30 AM 42.8 °F 34.8 °F 37.4 °F 81% 29.62 in 6.2 mi East 17.3 mph - N/A   Mostly Cloudy
5:00 AM 42 °F - 36 °F 74% 29.65 in 19 mi East 15.7 mph - - Rain Light Rain
5:00 AM 41.0 °F 33.1 °F 37.4 °F 87% 29.62 in 6.2 mi East 15.0 mph 35.7 mph N/A   Scattered Clouds
5:30 AM 42.8 °F 36.2 °F 35.6 °F 76% 29.62 in 6.2 mi ENE 12.7 mph - N/A   Partly Cloudy
6:00 AM 42 °F - 38 °F 79% 29.66 in 19 mi ENE 13.4 mph - -   Mostly Cloudy
6:00 AM 42.8 °F 36.2 °F 37.4 °F 81% 29.62 in 6.2 mi ENE 12.7 mph - N/A   Mostly Cloudy
6:30 AM 42.8 °F 38.0 °F 37.4 °F 81% 29.65 in 6.2 mi East 8.1 mph - N/A   Mostly Cloudy
7:00 AM 43 °F - 38 °F 75% 29.67 in 19 mi East 8.9 mph - -   Mostly Cloudy
7:00 AM 42.8 °F 37.5 °F 37.4 °F 81% 29.65 in 6.2 mi East 9.2 mph - N/A   Mostly Cloudy
7:30 AM 42.8 °F 37.5 °F 37.4 °F 81% 29.65 in 6.2 mi East 9.2 mph - N/A   Mostly Cloudy
8:00 AM 44 °F - 38 °F 71% 29.69 in 19 mi East 8.9 mph - -   Mostly Cloudy
8:00 AM 44.6 °F 39.7 °F 37.4 °F 76% 29.68 in 6.2 mi East 9.2 mph - N/A   Mostly Cloudy
8:30 AM 44.6 °F 40.2 °F 37.4 °F 76% 29.68 in 6.2 mi East 8.1 mph - N/A   Mostly Cloudy
9:00 AM 45 °F - 39 °F 72% 29.70 in 22 mi East 11.2 mph - - Rain Light Rain
9:00 AM 44.6 °F 38.8 °F 39.2 °F 81% 29.68 in 6.2 mi East 11.5 mph - N/A   Scattered Clouds
9:30 AM 46.4 °F 40.7 °F 41.0 °F 81% 29.68 in 6.2 mi ENE 12.7 mph - N/A   Partly Cloudy
10:00 AM 48 °F - 40 °F 64% 29.70 in 25 mi East 13.4 mph - -   Scattered Clouds
10:00 AM 48.2 °F - 39.2 °F 71% 29.68 in 6.2 mi East 13.8 mph - N/A   Partly Cloudy
10:30 AM 48.2 °F - 41.0 °F 76% 29.71 in 6.2 mi East 11.5 mph - N/A   Partly Cloudy
11:00 AM 50 °F - 42 °F 64% 29.73 in 31 mi East 8.9 mph - -   Partly Cloudy
11:00 AM 50.0 °F - 41.0 °F 71% 29.71 in 6.2 mi East 9.2 mph - N/A   Partly Cloudy
11:30 AM 50.0 °F - 41.0 °F 71% 29.71 in 6.2 mi East 11.5 mph - N/A   Partly Cloudy
12:00 PM 50 °F - 40 °F 58% 29.73 in 31 mi East 13.4 mph - -   Scattered Clouds
12:00 PM 50.0 °F - 39.2 °F 66% 29.71 in 6.2 mi East 12.7 mph - N/A   Partly Cloudy
12:30 PM 50.0 °F - 41.0 °F 71% 29.71 in 6.2 mi East 11.5 mph - N/A   Partly Cloudy
1:00 PM 50.0 °F - 39.2 °F 66% 29.71 in 6.2 mi East 10.4 mph - N/A   Partly Cloudy
1:30 PM 50.0 °F - 41.0 °F 71% 29.71 in 6.2 mi East 11.5 mph - N/A   Partly Cloudy
2:00 PM 51 °F - 41 °F 60% 29.75 in 31 mi East 11.2 mph - -   Partly Cloudy
2:00 PM 50.0 °F - 41.0 °F 71% 29.74 in 6.2 mi East 10.4 mph - N/A   Partly Cloudy
2:30 PM 51.8 °F - 41.0 °F 67% 29.71 in 6.2 mi East 10.4 mph - N/A   Partly Cloudy
3:00 PM 52 °F - 42 °F 59% 29.73 in 31 mi East 13.4 mph - -   Scattered Clouds
3:00 PM 51.8 °F - 42.8 °F 71% 29.71 in 6.2 mi East 12.7 mph - N/A   Partly Cloudy
3:30 PM 51.8 °F - 41.0 °F 67% 29.71 in 6.2 mi East 11.5 mph - N/A   Partly Cloudy
4:00 PM 52 °F - 41 °F 55% 29.73 in 31 mi East 13.4 mph - -   Scattered Clouds
4:00 PM 51.8 °F - 41.0 °F 67% 29.71 in - East 12.7 mph - N/A   Clear
4:30 PM 51.8 °F - 41.0 °F 67% 29.71 in - East 12.7 mph - N/A   Clear
5:00 PM 52 °F - 41 °F 55% 29.72 in 31 mi East 11.2 mph - -   Scattered Clouds
5:00 PM 51.8 °F - 41.0 °F 67% 29.71 in - East 11.5 mph - N/A   Clear
5:30 PM 51.8 °F - 41.0 °F 67% 29.71 in - East 13.8 mph - N/A   Clear
6:00 PM 51 °F - 41 °F 58% 29.71 in 31 mi East 13.4 mph - -   Scattered Clouds
6:00 PM 51.8 °F - 41.0 °F 67% 29.68 in - East 11.5 mph - N/A   Clear
6:30 PM 51.8 °F - 41.0 °F 67% 29.68 in - East 11.5 mph - N/A   Clear
7:00 PM 49 °F - 41 °F 66% 29.70 in 31 mi East 8.9 mph - -   Scattered Clouds
7:00 PM 48.2 °F - 41.0 °F 76% 29.68 in 6.2 mi East 8.1 mph - N/A   Partly Cloudy
7:30 PM 48.2 °F - 41.0 °F 76% 29.68 in 6.2 mi East 6.9 mph - N/A   Partly Cloudy
8:00 PM 47 °F - 42 °F 76% 29.70 in 25 mi ENE 8.9 mph - -   Scattered Clouds
8:00 PM 46.4 °F 42.4 °F 41.0 °F 81% 29.68 in 6.2 mi ENE 8.1 mph - N/A   Partly Cloudy
8:30 PM 48.2 °F - 41.0 °F 76% 29.68 in 6.2 mi NE 5.8 mph - N/A   Scattered Clouds
9:00 PM 48.2 °F - 41.0 °F 76% 29.68 in - NE 4.6 mph - N/A   Clear
9:30 PM 48.2 °F - 39.2 °F 71% 29.68 in - ENE 6.9 mph - N/A   Clear
10:00 PM 48.2 °F - 39.2 °F 71% 29.68 in - East 6.9 mph - N/A   Clear
10:30 PM 48.2 °F - 41.0 °F 76% 29.68 in - ENE 5.8 mph - N/A   Clear
11:00 PM 49 °F - 39 °F 60% 29.69 in 19 mi ENE 6.7 mph - -   Overcast
11:00 PM 48.2 °F - 39.2 °F 71% 29.68 in - ENE 6.9 mph - N/A   Clear
11:30 PM 48.2 °F - 39.2 °F 71% 29.65 in - ENE 6.9 mph - N/A   Clear